Regional Weather Roundup
Issued by NWS Upton, NY

Current Version | Previous Version | Graphics & Text | Print | Product List | Glossary Off
Versions: 1 2 3 4 5 6 7 8 9 10 11 12 13 14 15 16 17 18 19 20 21 22 23 24 25 26 27 28 29 30 31 32 33 34 35 36 37 38 39 40 41 42 43 44 45 46 47 48 49 50

000
ASUS41 KOKX 201505
RWROKX

Regional Weather Roundup
National Weather Service New York NY
1100 AM EDT SUN MAY 20 2018

Note: "FAIR" indicates few or no clouds below 12,000 feet with no
significant weather and/or obstructions to visibility.

NYZ071-072-176-178-NJZ106-104-201600-
New York City Metro Area

CITY           SKY/WX    TMP DP  RH WIND       PRES   REMARKS
Central Park   CLOUDY    74  68  81 VRB5      29.97F
Bronx Bot Gard   N/A     75  66  73 W14       29.97R
Bronx Lehman C   N/A     75  68  78 W9          N/A
LaGuardia Arpt PTSUNNY   77  67  71 SW12      29.93F
Queens College   N/A     75  68  78 SW10        N/A
Kennedy Intl   PTSUNNY   75  70  84 SW18      29.96F
Breezy Point     N/A     70 N/A N/A SW12        N/A
Brooklyn Coll    N/A     75  66  73 SW13        N/A
Staten Island    N/A     77  68  73 SW12        N/A
Newark/Liberty PTSUNNY   78  68  71 SW16G23   29.94F
Teterboro      PTSUNNY   77  68  73 W13G24    29.92F
$$

NYZ177-179-078>081-201600-
Long Island New York

CITY           SKY/WX    TMP DP  RH WIND       PRES   REMARKS
Jones Beach      N/A     63 N/A N/A SW7G15      N/A
Wantagh          N/A     70  64  83 SW9         N/A
Hempstead        N/A     73  68  83 SW16      29.98S
Matinecock Pt    N/A     68 N/A N/A SW14        N/A
Farmingdale    FAIR      73  67  81 SW8       29.95F
MacArthur/ISP  PTSUNNY   66  64  93 SW12      29.95F
Stony Brook      N/A     72  66  83 SW6         N/A
Shirley        CLOUDY    63  63 100 S10       29.96F
Mt Sinai Harb    N/A     73 N/A N/A SW6G12      N/A
Westhampton    CLOUDY    60  57  89 SW10G20   29.98S
East Hampton   CLOUDY    60  58  96 SW13      29.96S
Southold         N/A     70  64  83 S9          N/A
Montauk          N/A     61  60  97 SW9G17    29.96F
$$

NYZ052-065-067-201600-
Hudson Valley

CITY           SKY/WX    TMP DP  RH WIND       PRES   REMARKS
White Plains   PTSUNNY   74  67  78 SW8       29.94F
Larchmont Harb   N/A     66 N/A N/A S13         N/A
Croton On Huds   N/A     68 N/A N/A S8          N/A
Somers           N/A     72  68  88 SW5         N/A
Brewster         N/A     68  66  94 W3          N/A
Newburgh       PTSUNNY   73  70  88 W14       29.93F
Montgomery     PTSUNNY   75  67  76 SW13      29.90F
Otisville        N/A     72  68  88 SW7         N/A
Warwick          N/A     73  68  83 W14         N/A
Suffern          N/A     72  66  83 W6          N/A
Poughkeepsie   CLOUDY    73  65  75 SW8       29.90F
Albany         DRIZZLE   66  62  87 CALM      29.88S
$$

NJZ001-105-106-008-010-013-015-019>022-104-201600-
New Jersey

CITY           SKY/WX    TMP DP  RH WIND       PRES   REMARKS
Newark/Liberty PTSUNNY   78  68  71 SW16G23   29.94F
Teterboro      PTSUNNY   77  68  73 W13G24    29.92F
Caldwell       CLOUDY    75  67  76 W8        29.95S
Somerville     CLOUDY    75  70  84 VRB5      29.94S
Linden         PTSUNNY   76  70  82 W9        29.95S
Perth Amboy      N/A     75 N/A N/A W21G26      N/A
Sussex         PTSUNNY   71  67  87 SW12      29.94S
Andover          N/A     69  67  93 VRB5      29.97S
Trenton        CLOUDY    77  68  73 W9G20     29.97F
Millville      CLOUDY    77  70  79 W16       30.01F
Atlantic City  PTSUNNY   78  70  76 SW13G28   30.00F
Wrightstown    FAIR      77  69  75 W17       29.96
Toms River     CLOUDY    76  70  82 W15G21    29.99S
Belmar         CLOUDY    75  68  78 SW16G23   29.98F
$$

PAZ047>061-062-071-201600-
Eastern Pennsylvania

CITY           SKY/WX    TMP DP  RH WIND       PRES   REMARKS
Philadelphia   PTSUNNY   76  68  76 SW18      30.00
Allentown      CLOUDY    73  66  78 SW12      29.99R
Scranton       CLOUDY    66  63  90 SW12G21   29.98R
$$

CTZ002-004>006-009-010-012-RIZ004-006-007-MAZ004-011-015-201600-
Southern New England

 In CT

CITY           SKY/WX    TMP DP  RH WIND       PRES   REMARKS
Bradley Intl   PTSUNNY   71  66  84 S10       29.89F
Hartford       CLOUDY    70  67  90 S6        29.90F
Danbury        PTSUNNY   72  67  84 SW10G20   29.94S
Wtrbury/Oxford PTSUNNY   70  68  93 SW7       29.93F
Norwalk Harbor   N/A     64 N/A N/A SW10        N/A
Bridgeport     CLOUDY    66  63  90 SW7       29.93F
Meriden        CLOUDY    65  64  97 S8        29.91F
New Haven      CLOUDY    66  64  93 SW7       29.93F FOG
Chester        FOG       64  64 100 VRB6      29.94F VSB 1
Groton         FOG       60  60 100 S6        29.93F VSB 1/2
Willimantic    CLOUDY    69  66  90 SW10      29.91F

 In RI

CITY           SKY/WX    TMP DP  RH WIND       PRES   REMARKS
Providence     CLOUDY    69  65  86 SW13      29.92F
Block Island   LGT RAIN  56  56 100 SW22G31   29.96S VSB 1/4
Westerly       FOG       61  61 100 SW9       29.95F VSB 1/2

In MA

CITY           SKY/WX    TMP DP  RH WIND       PRES   REMARKS
Boston         CLOUDY    73  66  78 SW16G23   29.85F
Worcester      CLOUDY    69  64  84 SW22G28   29.89F
Westfield      CLOUDY    74  66  76 SW12      29.87F
Provincetown   CLOUDY    60  58  92 SW22      29.90F FOG
Nantucket      FOG       57  57 100 SW15      29.97F VSB 1/4
$$

ANZ330-335-338-340-345-350-353-355-201600-
Coastal Marine Observations


STATION/POSITION TIME  SKY/WX   TEMP    WIND        PRES    VSBY  WAVE
                                AIR SEA DIR/SP/G                  HT/PER
                 (UTC)          (F)     (DEG/KT/KT) (MB)    (MI)  (FT/S)
NY Harb Entrance 1450            57 53  190/ 14/ 16 1014.5          4/ 6
20 S Fire Island 1450            56 51  210/ 17/ 21 1014.9          5/ 5
23 SSW Montauk P 1450            54 51  220/ 16/ 19 1014.9          5/ 6
15 E Barnegat Li 1430               53                N/A           5/ 5
Hudson Canyon    1450            57 51  210/ 17/ 21 1016.0          6/ 5
Kings Point      1442            71 55  280/ 11/ 16 1014.7
Execution Rocks  NOT AVBL
Western LI Sound NOT AVBL
Central LI Sound 1400            56     210/ 10/ 10   N/A           1
Robbins Reef     1442            74     260/ 19/ 26 1014.4
$$


>>>>>>>>>>>>>>>>>>>>>>>>>>>> KEY <<<<<<<<<<<<<<<<<<<<<<<<<<<
>                                                          <
>     SKY/WX - Sky Condition/Present Weather               <
>     TMP    - Temperature in Fahrenheit                   <
>     DP     - Dew Point in Fahrenheit                     <
>     RH     - Relative Humidity in Percent                <
>     WIND   - Direction (from) and Speed in MPH           <
>     PRES   - Mean Sea Level Pressure (inches of Hg)      <
>     WCI    - Wind Chill Index                            <
>     VSB    - Visibility in Miles                         <
>     HX     - Heat Index                                  <
>     TC     - Temperature in Celsius                      <
>     VRB    - Varibale Wind Direction                     <
>                                                          <
>>>>>>>>>>>>>>>>>>>>>>>>>>>> KEY <<<<<<<<<<<<<<<<<<<<<<<<<<<



USA.gov is the U.S. government's official web portal to all federal, state and local government web resources and services.